#timestamp,LO_Frequency,Hit,StdDev 
1459641615.4,286047001.0,N
1459641635.2,286046999.1,N
1459641655.0,286047001.2,N
1459641655.9,286047001.2,N
1459641675.8,286046999.4,N
1459641695.6,286046998.8,N
1459641715.4,286047000.2,N
1459641735.3,286047002.5,N
1459641755.1,286047004.4,N
1459641756.0,286047004.4,N
1459641775.8,286047002.2,N
1459641795.7,286047000.6,N
1459641815.5,286046999.3,N
1459641835.3,286046998.2,N
1459641855.2,286047000.8,N
1459641875.9,286046997.2,N
1459641895.7,286046997.4,N
1459641915.5,286046999.4,N
1459641935.4,286046998.9,N
1459641955.2,286046998.8,N
1459641975.0,286046999.6,N
1459641975.9,286046999.6,N
1459641995.8,286046997.9,N
1459642015.6,286046996.3,N
1459642035.4,286046996.2,N
1459642055.3,286046999.2,N
1459642075.1,286046998.3,N
1459642076.0,286046998.3,N
1459642095.8,286046997.7,N
1459642115.7,286046996.7,N
1459642135.5,286046999.6,N
1459642155.3,286046999.2,N
1459642175.2,286046998.0,N
1459642195.9,286046999.1,N
1459642215.7,286046999.3,N
1459642235.6,286046997.5,N
1459642255.4,286046996.5,N
1459642275.2,286046999.3,N
1459642295.0,286046998.3,N
1459642295.9,286046998.3,N
1459642315.8,286047002.3,N
1459642335.6,286046998.5,N
1459642355.4,286047000.8,N
1459642375.3,286047000.3,N
1459642395.1,286047000.3,N
1459642415.8,286047001.3,N
1459642435.7,286047001.8,N
1459642455.5,286046999.8,N
1459642475.3,286047001.1,N
1459642495.2,286047000.6,N
1459642515.9,286046998.3,N
1459642535.7,286046998.4,N
1459642555.6,286046994.9,Y
1459642575.4,286046997.2,P
1459642595.2,286046998.6,N
1459642615.1,286046998.3,N
1459642616.0,286046998.3,N
1459642635.8,286047000.3,N
1459642655.6,286047003.6,Y
1459642675.5,286047004.9,P
1459642695.3,286047002.0,N
1459642715.1,286047002.7,N
1459642735.9,286047002.3,N
1459642755.7,286047000.7,N
1459642775.5,286046998.1,N
1459642795.3,286047000.2,N
1459642815.2,286047000.4,N
1459642835.0,286047002.1,N
1459642835.9,286047002.1,N
1459642855.7,286047002.1,N
1459642875.6,286047000.1,N
1459642895.4,286047002.4,N
1459642915.2,286046998.1,N
1459642935.1,286047001.5,N
1459642936.0,286047001.5,N
1459642955.8,286047003.9,N
1459642975.6,286047003.7,N
1459642995.5,286047004.4,N
1459643015.3,286047002.2,N
1459643035.1,286047000.7,N
1459643055.9,286046998.3,N
1459643075.7,286047000.4,N
1459643095.5,286047000.7,N
1459643115.3,286046999.6,N
1459643135.2,286046998.6,N
1459643155.0,286047000.7,N
1459643155.9,286047000.7,N
1459643175.7,286046999.0,N
1459643195.6,286046998.3,N
1459643215.4,286046998.9,N
1459643235.2,286047002.7,N
1459643255.1,286046999.2,N
1459643256.0,286046999.2,N
1459643275.8,286046999.5,N
1459643295.6,286046998.0,N
1459643315.5,286046999.4,N
1459643335.3,286047000.8,N
1459643355.1,286047001.2,N
1459643375.9,286046999.7,N
1459643395.7,286047001.8,N
1459643415.5,286047001.4,N
1459643435.4,286047003.9,N
1459643455.2,286047003.6,N
1459643475.0,286047005.9,Y
1459643475.9,286047005.9,P
1459643495.8,286047005.6,N
1459643515.6,286047003.0,N
1459643535.4,286047003.3,N
1459643555.3,286047006.0,Y
1459643575.1,286046996.6,P
1459643576.0,286046996.6,N
1459643595.8,286046997.2,N
1459643615.7,286046996.5,N
1459643635.5,286046997.0,N
1459643655.3,286046996.6,N
1459643675.1,286046997.2,N
1459643695.9,286046994.0,N
1459643715.7,286046995.2,N
1459643735.5,286046995.1,N
1459643755.4,286046993.3,N
1459643775.2,286046995.8,N
1459643795.0,286046996.0,N
1459643795.9,286046996.0,N
1459643815.8,286046996.2,N
1459643835.6,286046994.3,N
1459643855.4,286046993.0,Y
1459643875.3,286046996.1,P
1459643895.1,286047001.2,P
1459643915.8,286046999.1,N
1459643935.7,286046999.2,N
1459643955.5,286047000.3,N
1459643975.3,286047002.0,N
1459643995.2,286046999.7,N
1459644015.9,286047000.5,N
1459644035.7,286047001.0,N
1459644055.5,286047000.2,N
1459644075.4,286047000.9,N
1459644095.2,286047000.2,N
1459644115.0,286047002.3,N
1459644115.9,286047002.3,N
1459644135.8,286047002.8,N
1459644155.6,286046999.8,N
1459644175.4,286047001.9,N
1459644195.3,286047002.6,N
1459644215.1,286047002.8,N
1459644216.0,286047002.8,N
1459644235.8,286047002.8,N
1459644255.7,286046998.3,N
1459644275.5,286046999.2,N
1459644295.3,286046997.3,N
1459644315.2,286046995.0,N
1459644335.9,286046994.3,N
1459644355.7,286046990.1,Y
1459644375.6,286046990.9,P
1459644395.4,286046990.9,N
1459644415.2,286046996.3,N
1459644435.1,286046992.6,N
1459644436.0,286046992.6,N
1459644455.8,286046990.3,N
1459644475.6,286046992.5,N
1459644495.4,286046994.8,N
1459644515.3,286046993.9,N
1459644535.1,286046996.4,N
1459644555.8,286046994.4,N
1459644575.7,286046994.7,N
1459644595.5,286046993.4,N
1459644615.3,286046994.5,N
1459644635.2,286046992.6,Y
1459644655.9,286046998.8,P
1459644675.7,286047000.4,N
1459644695.6,286047000.1,N
1459644715.4,286047003.2,N
1459644735.2,286047004.4,N
1459644755.1,286047005.4,N
1459644756.0,286047005.4,N
1459644775.8,286047005.9,N
1459644795.6,286047007.0,N
1459644815.5,286047010.3,N
1459644835.3,286047011.1,N
1459644855.1,286047011.2,N
1459644875.9,286047014.8,Y
1459644895.7,286047010.6,P
1459644915.5,286047008.8,N
1459644935.3,286047006.7,N
1459644955.2,286047006.3,N
1459644975.0,286047006.3,N
1459644975.9,286047006.3,Y
1459644995.8,286046998.3,P
1459645015.6,286046999.4,N
1459645035.4,286046999.4,N
1459645055.2,286046997.8,N
1459645075.1,286046995.8,N
1459645076.0,286046995.8,N
1459645095.8,286046996.9,N
1459645115.6,286047000.8,N
1459645135.5,286047001.2,N
1459645155.3,286046997.0,N
1459645175.1,286046999.2,N
1459645195.9,286046997.1,N
